Location: ??????????
(41.2581°N, 22.8006°E)
Time: 03:10:48
(UTC+00:00)

USA 215 - Pass Details

Date: 13 December 2025
Orbit: 1098 x 1109 km, 123.0° (Epoch: 10 January)

Event Time Altitude Azimuth Distance (km) Brightness Sun altitude
Exits shadow 17:12:07 23° 22° (NNE) 2,141 4.5 -24.0°
Maximum altitude 17:12:58 24° 11° (N) 2,110 4.5 -24.1°
Drops below altitude 10° 17:17:57 10° 321° (NW) 2,963 5.9 -25.0°
Sets 17:20:55 0° 308° (NW) 3,920 6.8 -25.6°
